User: anonymous   Login
Location: *
(17.3280°S, 114.7300°W)
Time: 12:43:03
(UTC+00:00)
Language:

Centaur AC-64 - Orbit

View from above orbital plane
View from above orbital plane
View from above satellite
View from above satellite

Ground track
Ground track

The orbit data is extracted from the following two-line orbital elements,

1 15874U 85055B   20294.41914704 +.00000415 +00000-0 +23886-3 0  9995
2 15874 023.1443 108.4913 6553813 351.3390 001.3242 03.21563179369631
Epoch (UTC): 20 October 2020 10:03:34
Eccentricity: 0.6553813
inclination: 23.1443°
perigee height: 304 km
apogee height: 25718 km
right ascension of ascending node: 108.4913°
argument of perigee: 351.3390°
revolutions per day: 3.21563179
mean anomaly at epoch: 1.3242°
orbit number at epoch: 36963

The dashed part of the orbit path shows where the satellite is in the earth's shadow,  

DLR